Location: Oberstdorf
(47.4188°N, 10.2969°E)
Time: 08:37:22
(UTC+01:00)

ISS - Pass Details

Date: 08 January 2018
Orbit: 402 x 406 km, 51.6° (Epoch: 16 January)

Event Time Altitude Azimuth Distance (km) Brightness Sun altitude
Exits shadow 05:07:49 13° 62° (ENE) 1,292 -0.6 -29.1°
Drops below altitude 10° 05:08:16 10° 65° (ENE) 1,467 -0.3 -29.1°
Sets 05:10:27 0° 74° (ENE) 2,329 1.1 -28.7°
